Time,TemperatureF,DewpointF,PressureIn,WindDirection,WindDirectionDegrees,WindSpeedMPH,WindSpeedGustMPH,Humidity,HourlyPrecipIn,Conditions,Clouds,dailyrainin,SoftwareType,DateUTC
2013-02-23 00:01:00,36.0,34.0,-100.00,South,180,1.0,6.0,91,-99.99,,,-99.99,,2013-02-23 08:01:00,
2013-02-23 00:11:00,37.0,34.0,-100.00,South,180,2.0,5.0,91,-99.99,,,-99.99,,2013-02-23 08:11:00,
2013-02-23 00:21:00,37.0,34.0,-100.00,South,180,2.0,5.0,91,-99.99,,,-99.99,,2013-02-23 08:21:00,
2013-02-23 00:31:00,37.0,35.0,-100.00,South,180,3.0,9.0,91,-99.99,,,-99.99,,2013-02-23 08:31:00,
2013-02-23 00:41:00,37.0,34.0,-100.00,South,180,1.0,4.0,91,-99.99,,,-99.99,,2013-02-23 08:41:00,
2013-02-23 00:52:00,37.0,34.0,-100.00,South,180,1.0,4.0,91,-99.99,,,-99.99,,2013-02-23 08:52:00,
2013-02-23 01:01:00,37.0,34.0,-100.00,South,180,1.0,14.0,91,-99.99,,,-99.99,,2013-02-23 09:01:00,
2013-02-23 01:11:00,37.0,34.0,-100.00,South,180,0.0,6.0,90,-99.99,,,-99.99,,2013-02-23 09:11:00,
2013-02-23 01:21:00,37.0,34.0,-100.00,South,180,0.0,6.0,90,-99.99,,,-99.99,,2013-02-23 09:21:00,
2013-02-23 01:31:00,36.0,33.0,-100.00,South,180,2.0,8.0,89,-99.99,,,-99.99,,2013-02-23 09:31:00,
2013-02-23 01:41:00,36.0,33.0,-100.00,South,180,1.0,3.0,91,-99.99,,,-99.99,,2013-02-23 09:41:00,
2013-02-23 01:52:00,36.0,33.0,-100.00,South,180,1.0,3.0,91,-99.99,,,-99.99,,2013-02-23 09:52:00,
2013-02-23 02:01:00,36.0,33.0,-100.00,South,180,1.0,6.0,91,-99.99,,,-99.99,,2013-02-23 10:01:00,
2013-02-23 02:11:00,36.0,34.0,-100.00,South,180,1.0,9.0,92,-99.99,,,-99.99,,2013-02-23 10:11:00,
2013-02-23 02:21:00,36.0,34.0,-100.00,South,180,1.0,9.0,92,-99.99,,,-99.99,,2013-02-23 10:21:00,
2013-02-23 02:31:00,37.0,35.0,-100.00,South,180,1.0,4.0,92,-99.99,,,-99.99,,2013-02-23 10:31:00,
2013-02-23 02:41:00,37.0,35.0,-100.00,South,180,1.0,6.0,92,-99.99,,,-99.99,,2013-02-23 10:41:00,
2013-02-23 02:52:00,37.0,35.0,-100.00,South,180,1.0,6.0,92,-99.99,,,-99.99,,2013-02-23 10:52:00,
2013-02-23 03:02:00,37.0,35.0,-100.00,South,180,3.0,9.0,92,-99.99,,,-99.99,,2013-02-23 11:02:00,
2013-02-23 03:11:00,37.0,35.0,-100.00,South,180,2.0,5.0,92,-99.99,,,-99.99,,2013-02-23 11:11:00,
2013-02-23 03:21:00,37.0,35.0,-100.00,South,180,2.0,5.0,92,-99.99,,,-99.99,,2013-02-23 11:21:00,
2013-02-23 03:32:00,37.0,35.0,-100.00,South,180,2.0,4.0,92,-99.99,,,-99.99,,2013-02-23 11:32:00,
2013-02-23 03:41:00,38.0,35.0,-100.00,South,180,1.0,4.0,92,-99.99,,,-99.99,,2013-02-23 11:41:00,
2013-02-23 03:52:00,38.0,35.0,-100.00,South,180,1.0,4.0,92,-99.99,,,-99.99,,2013-02-23 11:52:00,
2013-02-23 04:01:00,38.0,35.0,-100.00,South,180,1.0,5.0,92,-99.99,,,-99.99,,2013-02-23 12:01:00,
2013-02-23 04:11:00,38.0,36.0,-100.00,South,180,1.0,6.0,92,-99.99,,,-99.99,,2013-02-23 12:11:00,
2013-02-23 04:21:00,38.0,36.0,-100.00,South,180,1.0,6.0,92,-99.99,,,-99.99,,2013-02-23 12:21:00,
2013-02-23 04:32:00,38.0,36.0,-100.00,South,180,1.0,4.0,92,-99.99,,,-99.99,,2013-02-23 12:32:00,
2013-02-23 04:42:00,38.0,35.0,-100.00,South,180,2.0,5.0,92,-99.99,,,-99.99,,2013-02-23 12:42:00,
2013-02-23 04:52:00,38.0,35.0,-100.00,South,180,2.0,5.0,92,-99.99,,,-99.99,,2013-02-23 12:52:00,
2013-02-23 05:01:00,38.0,36.0,-100.00,South,180,2.0,6.0,92,-99.99,,,-99.99,,2013-02-23 13:01:00,
2013-02-23 05:11:00,38.0,35.0,-100.00,South,180,2.0,7.0,92,-99.99,,,-99.99,,2013-02-23 13:11:00,
2013-02-23 05:22:00,38.0,35.0,-100.00,South,180,2.0,7.0,92,-99.99,,,-99.99,,2013-02-23 13:22:00,
2013-02-23 05:31:00,37.0,35.0,-100.00,South,180,3.0,6.0,92,-99.99,,,-99.99,,2013-02-23 13:31:00,
2013-02-23 05:42:00,37.0,35.0,-100.00,South,180,1.0,4.0,92,-99.99,,,-99.99,,2013-02-23 13:42:00,
2013-02-23 05:52:00,37.0,35.0,-100.00,South,180,1.0,4.0,92,-99.99,,,-99.99,,2013-02-23 13:52:00,
2013-02-23 06:02:00,37.0,35.0,-100.00,South,180,1.0,4.0,92,-99.99,,,-99.99,,2013-02-23 14:02:00,
2013-02-23 06:11:00,37.0,35.0,-100.00,South,180,1.0,4.0,92,-99.99,,,-99.99,,2013-02-23 14:11:00,
2013-02-23 06:21:00,37.0,35.0,-100.00,South,180,1.0,4.0,92,-99.99,,,-99.99,,2013-02-23 14:21:00,
2013-02-23 06:32:00,37.0,35.0,-100.00,South,180,1.0,3.0,92,-99.99,,,-99.99,,2013-02-23 14:32:00,
2013-02-23 06:41:00,38.0,36.0,-100.00,South,180,1.0,3.0,93,-99.99,,,-99.99,,2013-02-23 14:41:00,
2013-02-23 06:52:00,38.0,36.0,-100.00,South,180,1.0,3.0,93,-99.99,,,-99.99,,2013-02-23 14:52:00,
2013-02-23 07:01:00,38.0,36.0,-100.00,South,180,1.0,4.0,93,-99.99,,,-99.99,,2013-02-23 15:01:00,
2013-02-23 07:11:00,38.0,36.0,-100.00,South,180,1.0,3.0,93,-99.99,,,-99.99,,2013-02-23 15:11:00,
2013-02-23 07:21:00,38.0,36.0,-100.00,South,180,1.0,3.0,93,-99.99,,,-99.99,,2013-02-23 15:21:00,
2013-02-23 07:31:00,37.0,36.0,-100.00,South,180,1.0,3.0,93,-99.99,,,-99.99,,2013-02-23 15:31:00,
2013-02-23 07:41:00,36.0,34.0,-100.00,South,180,3.0,6.0,93,-99.99,,,-99.99,,2013-02-23 15:41:00,
2013-02-23 07:52:00,36.0,34.0,-100.00,South,180,3.0,6.0,93,-99.99,,,-99.99,,2013-02-23 15:52:00,
2013-02-23 08:01:00,36.0,34.0,-100.00,South,180,1.0,6.0,93,-99.99,,,-99.99,,2013-02-23 16:01:00,
2013-02-23 08:11:00,36.0,34.0,-100.00,South,180,1.0,3.0,93,-99.99,,,-99.99,,2013-02-23 16:11:00,
2013-02-23 08:21:00,36.0,34.0,-100.00,South,180,1.0,3.0,93,-99.99,,,-99.99,,2013-02-23 16:21:00,
2013-02-23 08:31:00,36.0,34.0,-100.00,South,180,2.0,6.0,93,-99.99,,,-99.99,,2013-02-23 16:31:00,
2013-02-23 08:42:00,37.0,35.0,-100.00,South,180,1.0,4.0,93,-99.99,,,-99.99,,2013-02-23 16:42:00,
2013-02-23 08:52:00,37.0,35.0,-100.00,South,180,1.0,4.0,93,-99.99,,,-99.99,,2013-02-23 16:52:00,
2013-02-23 09:01:00,37.0,35.0,-100.00,South,180,1.0,3.0,93,-99.99,,,-99.99,,2013-02-23 17:01:00,
2013-02-23 09:11:00,38.0,36.0,-100.00,South,180,1.0,3.0,93,-99.99,,,-99.99,,2013-02-23 17:11:00,
2013-02-23 09:21:00,38.0,36.0,-100.00,South,180,1.0,3.0,93,-99.99,,,-99.99,,2013-02-23 17:21:00,
2013-02-23 09:31:00,38.0,36.0,-100.00,SW,225,1.0,2.0,93,-99.99,,,-99.99,,2013-02-23 17:31:00,
2013-02-23 09:41:00,38.0,36.0,-100.00,South,180,1.0,3.0,93,-99.99,,,-99.99,,2013-02-23 17:41:00,
2013-02-23 09:52:00,38.0,36.0,-100.00,South,180,1.0,3.0,93,-99.99,,,-99.99,,2013-02-23 17:52:00,
2013-02-23 10:01:00,38.0,36.0,-100.00,South,180,1.0,4.0,93,-99.99,,,-99.99,,2013-02-23 18:01:00,
2013-02-23 10:12:00,38.0,36.0,-100.00,South,180,1.0,3.0,93,-99.99,,,-99.99,,2013-02-23 18:12:00,
2013-02-23 10:21:00,38.0,36.0,-100.00,South,180,1.0,3.0,93,-99.99,,,-99.99,,2013-02-23 18:21:00,
2013-02-23 10:31:00,39.0,37.0,-100.00,South,180,1.0,3.0,93,-99.99,,,-99.99,,2013-02-23 18:31:00,
2013-02-23 10:41:00,40.0,38.0,-100.00,South,180,1.0,4.0,93,-99.99,,,-99.99,,2013-02-23 18:41:00,
2013-02-23 10:52:00,40.0,38.0,-100.00,South,180,1.0,4.0,93,-99.99,,,-99.99,,2013-02-23 18:52:00,
2013-02-23 11:01:00,41.0,39.0,-100.00,South,180,1.0,3.0,93,-99.99,,,-99.99,,2013-02-23 19:01:00,
2013-02-23 11:11:00,39.0,37.0,-100.00,South,180,3.0,6.0,92,-99.99,,,-99.99,,2013-02-23 19:11:00,
2013-02-23 11:21:00,39.0,37.0,-100.00,South,180,3.0,6.0,92,-99.99,,,-99.99,,2013-02-23 19:21:00,
2013-02-23 11:32:00,39.0,37.0,-100.00,South,180,1.0,4.0,91,-99.99,,,-99.99,,2013-02-23 19:32:00,
2013-02-23 11:41:00,40.0,38.0,-100.00,South,180,2.0,4.0,91,-99.99,,,-99.99,,2013-02-23 19:41:00,
2013-02-23 11:52:00,40.0,38.0,-100.00,South,180,2.0,4.0,91,-99.99,,,-99.99,,2013-02-23 19:52:00,
2013-02-23 12:01:00,41.0,38.0,-100.00,South,180,1.0,4.0,89,-99.99,,,-99.99,,2013-02-23 20:01:00,
2013-02-23 12:11:00,39.0,35.0,-100.00,South,180,2.0,8.0,86,-99.99,,,-99.99,,2013-02-23 20:11:00,
2013-02-23 12:21:00,39.0,35.0,-100.00,South,180,2.0,8.0,86,-99.99,,,-99.99,,2013-02-23 20:21:00,
2013-02-23 12:31:00,39.0,36.0,-100.00,North,-999,0.0,0.0,86,-99.99,,,-99.99,,2013-02-23 20:31:00,
2013-02-23 12:41:00,41.0,37.0,-100.00,South,180,0.0,3.0,84,-99.99,,,-99.99,,2013-02-23 20:41:00,
2013-02-23 12:52:00,41.0,37.0,-100.00,South,180,0.0,3.0,84,-99.99,,,-99.99,,2013-02-23 20:52:00,
2013-02-23 13:01:00,41.0,36.0,-100.00,South,180,0.0,4.0,80,-99.99,,,-99.99,,2013-02-23 21:01:00,
2013-02-23 13:11:00,42.0,36.0,-100.00,North,-999,0.0,0.0,78,-99.99,,,-99.99,,2013-02-23 21:11:00,
2013-02-23 13:22:00,42.0,36.0,-100.00,North,-999,0.0,0.0,78,-99.99,,,-99.99,,2013-02-23 21:22:00,
2013-02-23 13:31:00,42.0,35.0,-100.00,North,-999,0.0,0.0,77,-99.99,,,-99.99,,2013-02-23 21:31:00,
2013-02-23 13:41:00,42.0,35.0,-100.00,South,180,0.0,4.0,75,-99.99,,,-99.99,,2013-02-23 21:41:00,
2013-02-23 13:52:00,42.0,35.0,-100.00,South,180,0.0,4.0,75,-99.99,,,-99.99,,2013-02-23 21:52:00,
2013-02-23 14:01:00,43.0,35.0,-100.00,SW,225,0.0,3.0,74,-99.99,,,-99.99,,2013-02-23 22:01:00,
2013-02-23 14:11:00,43.0,34.0,-100.00,South,180,0.0,2.0,70,-99.99,,,-99.99,,2013-02-23 22:11:00,
2013-02-23 14:21:00,43.0,34.0,-100.00,South,180,0.0,2.0,70,-99.99,,,-99.99,,2013-02-23 22:21:00,
2013-02-23 14:31:00,43.0,33.0,-100.00,North,-999,0.0,0.0,68,-99.99,,,-99.99,,2013-02-23 22:31:00,
2013-02-23 14:41:00,42.0,32.0,-100.00,South,180,0.0,2.0,68,-99.99,,,-99.99,,2013-02-23 22:41:00,
2013-02-23 14:52:00,41.0,32.0,-100.00,South,180,0.0,3.0,70,-99.99,,,-99.99,,2013-02-23 22:52:00,
2013-02-23 15:01:00,41.0,32.0,-100.00,South,180,0.0,3.0,70,-99.99,,,-99.99,,2013-02-23 23:01:00,
2013-02-23 15:11:00,42.0,32.0,-100.00,South,180,0.0,6.0,67,-99.99,,,-99.99,,2013-02-23 23:11:00,
2013-02-23 15:21:00,42.0,32.0,-100.00,South,180,0.0,6.0,67,-99.99,,,-99.99,,2013-02-23 23:21:00,
2013-02-23 15:31:00,43.0,32.0,-100.00,SW,225,0.0,1.0,66,-99.99,,,-99.99,,2013-02-23 23:31:00,
2013-02-23 15:41:00,43.0,32.0,-100.00,South,180,0.0,2.0,66,-99.99,,,-99.99,,2013-02-23 23:41:00,
2013-02-23 15:52:00,43.0,32.0,-100.00,South,180,0.0,2.0,66,-99.99,,,-99.99,,2013-02-23 23:52:00,
2013-02-23 16:01:00,43.0,32.0,-100.00,South,180,0.0,1.0,65,-99.99,,,-99.99,,2013-02-24 00:01:00,
2013-02-23 16:11:00,43.0,31.0,-100.00,North,-999,0.0,0.0,64,-99.99,,,-99.99,,2013-02-24 00:11:00,
2013-02-23 16:22:00,43.0,31.0,-100.00,North,-999,0.0,0.0,64,-99.99,,,-99.99,,2013-02-24 00:22:00,
2013-02-23 16:32:00,43.0,30.0,-100.00,South,180,0.0,5.0,60,-99.99,,,-99.99,,2013-02-24 00:32:00,
2013-02-23 16:42:00,42.0,30.0,-100.00,South,180,0.0,2.0,61,-99.99,,,-99.99,,2013-02-24 00:42:00,
2013-02-23 16:52:00,42.0,30.0,-100.00,South,180,0.0,2.0,61,-99.99,,,-99.99,,2013-02-24 00:52:00,
2013-02-23 17:01:00,42.0,31.0,-100.00,North,-999,0.0,0.0,63,-99.99,,,-99.99,,2013-02-24 01:01:00,
2013-02-23 17:11:00,42.0,30.0,-100.00,South,180,0.0,2.0,61,-99.99,,,-99.99,,2013-02-24 01:11:00,
2013-02-23 17:22:00,42.0,30.0,-100.00,South,180,0.0,2.0,61,-99.99,,,-99.99,,2013-02-24 01:22:00,
2013-02-23 17:31:00,41.0,29.0,-100.00,South,180,0.0,1.0,62,-99.99,,,-99.99,,2013-02-24 01:31:00,
2013-02-23 17:41:00,41.0,30.0,-100.00,North,-999,0.0,0.0,63,-99.99,,,-99.99,,2013-02-24 01:41:00,
2013-02-23 17:52:00,41.0,30.0,-100.00,North,-999,0.0,0.0,63,-99.99,,,-99.99,,2013-02-24 01:52:00,
2013-02-23 18:01:00,41.0,31.0,-100.00,North,-999,0.0,0.0,68,-99.99,,,-99.99,,2013-02-24 02:01:00,
2013-02-23 18:11:00,40.0,32.0,-100.00,North,-999,0.0,0.0,74,-99.99,,,-99.99,,2013-02-24 02:11:00,
2013-02-23 18:21:00,40.0,32.0,-100.00,North,-999,0.0,0.0,74,-99.99,,,-99.99,,2013-02-24 02:21:00,
2013-02-23 18:31:00,38.0,33.0,-100.00,North,-999,0.0,0.0,83,-99.99,,,-99.99,,2013-02-24 02:31:00,
2013-02-23 18:41:00,38.0,34.0,-100.00,North,-999,0.0,0.0,86,-99.99,,,-99.99,,2013-02-24 02:41:00,
2013-02-23 18:52:00,38.0,34.0,-100.00,North,-999,0.0,0.0,86,-99.99,,,-99.99,,2013-02-24 02:52:00,
2013-02-23 19:01:00,37.0,34.0,-100.00,North,-999,0.0,0.0,88,-99.99,,,-99.99,,2013-02-24 03:01:00,
2013-02-23 19:11:00,37.0,34.0,-100.00,North,-999,0.0,0.0,90,-99.99,,,-99.99,,2013-02-24 03:11:00,
2013-02-23 19:21:00,37.0,34.0,-100.00,North,-999,0.0,0.0,90,-99.99,,,-99.99,,2013-02-24 03:21:00,
2013-02-23 19:31:00,37.0,35.0,-100.00,South,180,0.0,3.0,90,-99.99,,,-99.99,,2013-02-24 03:31:00,
2013-02-23 19:42:00,37.0,35.0,-100.00,North,-999,0.0,0.0,91,-99.99,,,-99.99,,2013-02-24 03:42:00,
2013-02-23 19:52:00,37.0,35.0,-100.00,North,-999,0.0,0.0,91,-99.99,,,-99.99,,2013-02-24 03:52:00,
2013-02-23 20:01:00,37.0,35.0,-100.00,North,-999,0.0,0.0,91,-99.99,,,-99.99,,2013-02-24 04:01:00,
2013-02-23 20:11:00,37.0,35.0,-100.00,North,-999,0.0,0.0,92,-99.99,,,-99.99,,2013-02-24 04:11:00,
2013-02-23 20:21:00,37.0,35.0,-100.00,North,-999,0.0,0.0,92,-99.99,,,-99.99,,2013-02-24 04:21:00,
2013-02-23 20:31:00,37.0,35.0,-100.00,North,-999,0.0,0.0,92,-99.99,,,-99.99,,2013-02-24 04:31:00,
2013-02-23 20:41:00,37.0,35.0,-100.00,North,-999,0.0,0.0,92,-99.99,,,-99.99,,2013-02-24 04:41:00,
2013-02-23 20:52:00,37.0,35.0,-100.00,North,-999,0.0,0.0,92,-99.99,,,-99.99,,2013-02-24 04:52:00,
2013-02-23 21:01:00,37.0,35.0,-100.00,North,-999,0.0,0.0,92,-99.99,,,-99.99,,2013-02-24 05:01:00,
2013-02-23 21:11:00,37.0,35.0,-100.00,North,-999,0.0,0.0,93,-99.99,,,-99.99,,2013-02-24 05:11:00,
2013-02-23 21:21:00,37.0,35.0,-100.00,North,-999,0.0,0.0,93,-99.99,,,-99.99,,2013-02-24 05:21:00,
2013-02-23 21:32:00,37.0,35.0,-100.00,North,-999,0.0,0.0,93,-99.99,,,-99.99,,2013-02-24 05:32:00,
2013-02-23 21:42:00,37.0,35.0,-100.00,North,-999,0.0,0.0,93,-99.99,,,-99.99,,2013-02-24 05:42:00,
2013-02-23 21:52:00,37.0,35.0,-100.00,North,-999,0.0,0.0,93,-99.99,,,-99.99,,2013-02-24 05:52:00,
2013-02-23 22:01:00,37.0,35.0,-100.00,North,-999,0.0,0.0,93,-99.99,,,-99.99,,2013-02-24 06:01:00,
2013-02-23 22:11:00,37.0,35.0,-100.00,North,-999,0.0,0.0,93,-99.99,,,-99.99,,2013-02-24 06:11:00,
2013-02-23 22:21:00,37.0,35.0,-100.00,North,-999,0.0,0.0,93,-99.99,,,-99.99,,2013-02-24 06:21:00,
2013-02-23 22:31:00,37.0,35.0,-100.00,North,-999,0.0,0.0,93,-99.99,,,-99.99,,2013-02-24 06:31:00,
2013-02-23 22:41:00,37.0,35.0,-100.00,North,-999,0.0,0.0,93,-99.99,,,-99.99,,2013-02-24 06:41:00,
2013-02-23 22:52:00,37.0,35.0,-100.00,North,-999,0.0,0.0,93,-99.99,,,-99.99,,2013-02-24 06:52:00,
2013-02-23 23:01:00,37.0,35.0,-100.00,North,-999,0.0,0.0,93,-99.99,,,-99.99,,2013-02-24 07:01:00,
2013-02-23 23:11:00,37.0,35.0,-100.00,North,-999,0.0,0.0,93,-99.99,,,-99.99,,2013-02-24 07:11:00,
2013-02-23 23:21:00,37.0,35.0,-100.00,North,-999,0.0,0.0,93,-99.99,,,-99.99,,2013-02-24 07:21:00,
2013-02-23 23:31:00,37.0,36.0,-100.00,North,-999,0.0,0.0,93,-99.99,,,-99.99,,2013-02-24 07:31:00,
2013-02-23 23:41:00,37.0,36.0,-100.00,South,180,0.0,1.0,93,-99.99,,,-99.99,,2013-02-24 07:41:00,
2013-02-23 23:52:00,37.0,36.0,-100.00,South,180,0.0,1.0,93,-99.99,,,-99.99,,2013-02-24 07:52:00,